QPF
0.01 0.01 0.02 0.02 0.03 0.04 0.03 0.04 0.04 0.05 0.04 0.03 0.07 0.13 0.12 0.10 0.10 0.07 0.05 0.03 0.02 0.02 0.02 0.02 0.02 0.02 0.02 0.02 0.02 0.02 0.03 0.04 0.07 0.09 0.09 0.09 0.11 0.12
0.01 0.02 0.02 0.02 0.02 0.02 0.03 0.04 0.05 0.06 0.07 0.05 0.04 0.07 0.09 0.08 0.08 0.06 0.05 0.04 0.03 0.03 0.03 0.02 0.02 0.02 0.02 0.01 0.02 0.02 0.02 0.03 0.04 0.05 0.07 0.09 0.09 0.10
0.03 0.03 0.02 0.02 0.02 0.03 0.05 0.06 0.06 0.05 0.04 0.04 0.04 0.05 0.06 0.08 0.07 0.05 0.03 0.03 0.02 0.02 0.02 0.02 0.01 0.02 0.01 0.02 0.02 0.01 0.02 0.02 0.01 0.02 0.03 0.05 0.06 0.06
0.03 0.04 0.03 0.05 0.05 0.05 0.05 0.05 0.05 0.05 0.05 0.04 0.04 0.03 0.03 0.04 0.04 0.05 0.05 0.04 0.03 0.04 0.04 0.02 0.01 0.01 0.01 0.01 0.01 0.02 0.02 0.02 0.01 0.01 0.01 0.02 0.04 0.05
0.03 0.04 0.03 0.03 0.04 0.04 0.04 0.04 0.05 0.04 0.03 0.02 0.03 0.02 0.02 0.03 0.04 0.04 0.05 0.06 0.05 0.07 0.07 0.05 0.03 0.02 0.01 0.01 0.01 0.02 0.02 0.02 0.02 0.01 0.01 0.01 0.02 0.03
0.04 0.03 0.03 0.02 0.02 0.03 0.04 0.04 0.03 0.03 0.02 0.01 0.01 0.01 0.02 0.01 0.03 0.05 0.04 0.04 0.06 0.08 0.07 0.06 0.05 0.03 0.02 0.02 0.02 0.02 0.02 0.02 0.01 0.01 0.01 0.01 0.01 0.01
0.05 0.03 0.03 0.03 0.03 0.03 0.02 0.02 0.02 0.02 0.02 0.01 0.01 0.02 0.01 0.01 0.01 0.02 0.03 0.03 0.04 0.06 0.07 0.06 0.06 0.04 0.03 0.03 0.04 0.03 0.02 0.02 0.02 0.02 0.02 0.01 0.01 0.01
0.03 0.03 0.03 0.03 0.03 0.03 0.02 0.02 0.02 0.03 0.03 0.03 0.02 0.01 0.01 0.01 0.01 0.01 0.02 0.04 0.03 0.04 0.05 0.05 0.04 0.04 0.05 0.05 0.04 0.04 0.02 0.02 0.02 0.01 0.01 0.01 0.01 0.01
0.03 0.04 0.04 0.03 0.03 0.03 0.02 0.02 0.01 0.02 0.02 0.03 0.01 0.00 0.00 0.01 0.01 0.02 0.02 0.02 0.03 0.03 0.04 0.04 0.04 0.03 0.05 0.06 0.06 0.06 0.04 0.03 0.03 0.03 0.02 0.02 0.01 0.01
0.05 0.03 0.02 0.02 0.02 0.02 0.02 0.01 0.01 0.01 0.01 0.02 0.01 0.00 0.00 0.01 0.01 0.01 0.02 0.02 0.02 0.03 0.03 0.03 0.03 0.03 0.04 0.06 0.06 0.06 0.05 0.04 0.05 0.05 0.03 0.03 0.02 0.02
0.06 0.04 0.02 0.01 0.02 0.02 0.01 0.01 0.01 0.01 0.02 0.02 0.02 0.02 0.02 0.02 0.01 0.01 0.02 0.02 0.02 0.02 0.02 0.03 0.03 0.04 0.05 0.07 0.07 0.05 0.05 0.04 0.05 0.05 0.04 0.03 0.04 0.05
0.04 0.04 0.03 0.03 0.03 0.02 0.02 0.01 0.01 0.02 0.02 0.01 0.02 0.03 0.02 0.02 0.01 0.01 0.02 0.02 0.01 0.01 0.02 0.03 0.03 0.04 0.05 0.04 0.05 0.05 0.04 0.04 0.03 0.03 0.04 0.04 0.04 0.04
0.04 0.04 0.03 0.04 0.03 0.03 0.02 0.01 0.01 0.02 0.03 0.02 0.02 0.02 0.03 0.02 0.01 0.01 0.01 0.02 0.02 0.02 0.01 0.02 0.02 0.04 0.04 0.03 0.03 0.03 0.04 0.03 0.03 0.02 0.03 0.04 0.04 0.04
0.04 0.03 0.02 0.02 0.02 0.02 0.02 0.01 0.01 0.02 0.02 0.02 0.02 0.02 0.02 0.03 0.02 0.02 0.01 0.01 0.01 0.01 0.01 0.01 0.01 0.03 0.03 0.03 0.03 0.03 0.03 0.03 0.02 0.02 0.02 0.03 0.03 0.03
0.02 0.02 0.02 0.03 0.02 0.02 0.02 0.02 0.02 0.01 0.01 0.01 0.02 0.01 0.01 0.02 0.03 0.03 0.03 0.02 0.01 0.01 0.01 0.01 0.01 0.02 0.02 0.02 0.03 0.03 0.03 0.03 0.03 0.03 0.03 0.04 0.04 0.04
0.02 0.02 0.03 0.04 0.04 0.04 0.04 0.03 0.02 0.02 0.02 0.02 0.02 0.02 0.02 0.03 0.03 0.03 0.04 0.02 0.01 0.01 0.02 0.02 0.03 0.03 0.04 0.05 0.05 0.04 0.03 0.03 0.03 0.03 0.03 0.04 0.04 0.04
0.01 0.01 0.02 0.03 0.03 0.03 0.03 0.03 0.03 0.03 0.03 0.03 0.03 0.03 0.02 0.03 0.04 0.03 0.04 0.05 0.03 0.02 0.03 0.03 0.03 0.04 0.06 0.08 0.08 0.07 0.06 0.05 0.04 0.03 0.02 0.03 0.03 0.04
0.02 0.02 0.03 0.03 0.04 0.03 0.03 0.02 0.02 0.02 0.03 0.04 0.05 0.04 0.03 0.02 0.04 0.05 0.05 0.05 0.05 0.03 0.04 0.04 0.03 0.04 0.03 0.03 0.05 0.06 0.08 0.07 0.07 0.04 0.02 0.02 0.02 0.04
0.02 0.03 0.04 0.04 0.03 0.03 0.03 0.02 0.02 0.03 0.04 0.04 0.05 0.05 0.04 0.03 0.03 0.03 0.04 0.05 0.06 0.06 0.05 0.05 0.05 0.04 0.03 0.02 0.02 0.04 0.06 0.06 0.08 0.06 0.03 0.02 0.01 0.01
0.03 0.04 0.03 0.03 0.02 0.02 0.02 0.02 0.02 0.03 0.03 0.03 0.04 0.04 0.05 0.05 0.05 0.05 0.04 0.05 0.06 0.07 0.07 0.07 0.06 0.06 0.04 0.03 0.02 0.03 0.04 0.06 0.07 0.07 0.05 0.03 0.02 0.02
0.04 0.04 0.03 0.03 0.03 0.02 0.02 0.02 0.02 0.03 0.03 0.03 0.03 0.04 0.04 0.05 0.05 0.06 0.06 0.05 0.05 0.05 0.06 0.06 0.07 0.09 0.08 0.06 0.05 0.04 0.04 0.05 0.07 0.09 0.06 0.04 0.03 0.03
0.04 0.04 0.04 0.03 0.03 0.03 0.03 0.03 0.03 0.03 0.03 0.03 0.03 0.03 0.03 0.04 0.04 0.03 0.03 0.05 0.05 0.05 0.06 0.05 0.05 0.06 0.06 0.06 0.05 0.05 0.04 0.04 0.06 0.08 0.09 0.07 0.06 0.05
0.03 0.03 0.04 0.05 0.05 0.03 0.03 0.03 0.03 0.03 0.03 0.04 0.04 0.04 0.04 0.04 0.03 0.03 0.03 0.04 0.06 0.05 0.05 0.05 0.04 0.05 0.04 0.03 0.04 0.05 0.05 0.05 0.05 0.07 0.07 0.06 0.05 0.05
MSLP
1002.43 1002.23 1002.10 1002.02 1001.98 1001.97 1001.99 1002.02 1002.07 1002.15 1002.25 1002.36 1002.48 1002.59 1002.68 1002.75 1002.83 1002.91 1003.04 1003.23 1003.50 1003.87 1004.31 1004.81 1005.33 1005.85 1006.32 1006.73 1007.08 1007.39 1007.68 1007.98 1008.33 1008.73 1009.19 1009.70 1010.24 1010.78
1003.33 1003.09 1002.88 1002.71 1002.56 1002.45 1002.36 1002.31 1002.30 1002.33 1002.40 1002.50 1002.60 1002.70 1002.79 1002.86 1002.92 1003.00 1003.12 1003.31 1003.57 1003.93 1004.37 1004.87 1005.38 1005.89 1006.35 1006.75 1007.10 1007.39 1007.67 1007.95 1008.28 1008.65 1009.09 1009.57 1010.07 1010.57
1004.10 1003.85 1003.60 1003.36 1003.13 1002.93 1002.77 1002.65 1002.59 1002.58 1002.63 1002.71 1002.81 1002.92 1003.01 1003.08 1003.15 1003.23 1003.34 1003.51 1003.75 1004.09 1004.50 1004.96 1005.44 1005.91 1006.35 1006.73 1007.05 1007.33 1007.59 1007.87 1008.18 1008.54 1008.95 1009.40 1009.87 1010.33
1004.73 1004.48 1004.22 1003.95 1003.69 1003.44 1003.23 1003.07 1002.97 1002.95 1002.98 1003.06 1003.17 1003.28 1003.38 1003.46 1003.53 1003.60 1003.70 1003.84 1004.05 1004.33 1004.68 1005.08 1005.50 1005.91 1006.30 1006.64 1006.93 1007.20 1007.46 1007.72 1008.03 1008.38 1008.77 1009.20 1009.64 1010.07
1005.23 1005.01 1004.77 1004.50 1004.23 1003.97 1003.75 1003.57 1003.46 1003.43 1003.46 1003.54 1003.66 1003.78 1003.89 1003.98 1004.05 1004.11 1004.17 1004.28 1004.43 1004.64 1004.91 1005.22 1005.55 1005.89 1006.21 1006.50 1006.76 1007.01 1007.26 1007.52 1007.83 1008.18 1008.57 1008.98 1009.41 1009.81
1005.63 1005.45 1005.24 1005.01 1004.76 1004.51 1004.30 1004.13 1004.03 1003.99 1004.03 1004.12 1004.24 1004.37 1004.48 1004.57 1004.63 1004.67 1004.71 1004.76 1004.85 1004.98 1005.15 1005.36 1005.60 1005.85 1006.10 1006.34 1006.56 1006.79 1007.03 1007.30 1007.61 1007.96 1008.35 1008.77 1009.18 1009.58
1005.97 1005.83 1005.66 1005.47 1005.25 1005.04 1004.85 1004.69 1004.60 1004.57 1004.61 1004.70 1004.82 1004.95 1005.07 1005.15 1005.20 1005.23 1005.23 1005.23 1005.25 1005.31 1005.39 1005.51 1005.66 1005.83 1006.01 1006.19 1006.39 1006.59 1006.83 1007.09 1007.41 1007.76 1008.16 1008.57 1008.99 1009.39
1006.24 1006.15 1006.02 1005.87 1005.70 1005.52 1005.35 1005.21 1005.12 1005.10 1005.13 1005.21 1005.32 1005.44 1005.55 1005.63 1005.68 1005.69 1005.67 1005.64 1005.61 1005.60 1005.62 1005.67 1005.75 1005.85 1005.98 1006.12 1006.28 1006.47 1006.69 1006.96 1007.27 1007.62 1008.01 1008.42 1008.84 1009.24
1006.46 1006.40 1006.31 1006.20 1006.06 1005.91 1005.75 1005.63 1005.54 1005.50 1005.52 1005.59 1005.68 1005.79 1005.89 1005.97 1006.01 1006.02 1005.99 1005.94 1005.89 1005.85 1005.83 1005.84 1005.88 1005.94 1006.03 1006.15 1006.29 1006.46 1006.67 1006.93 1007.22 1007.56 1007.94 1008.34 1008.74 1009.13
1006.58 1006.55 1006.50 1006.42 1006.31 1006.18 1006.05 1005.92 1005.83 1005.78 1005.77 1005.82 1005.89 1005.99 1006.08 1006.15 1006.19 1006.21 1006.19 1006.15 1006.11 1006.07 1006.05 1006.05 1006.08 1006.13 1006.21 1006.32 1006.45 1006.61 1006.80 1007.04 1007.31 1007.62 1007.96 1008.33 1008.71 1009.08
1006.58 1006.59 1006.57 1006.53 1006.45 1006.34 1006.22 1006.10 1006.00 1005.94 1005.91 1005.93 1005.99 1006.06 1006.15 1006.22 1006.27 1006.30 1006.30 1006.29 1006.28 1006.27 1006.27 1006.29 1006.34 1006.41 1006.51 1006.62 1006.75 1006.90 1007.08 1007.28 1007.52 1007.79 1008.08 1008.41 1008.74 1009.08
1006.44 1006.49 1006.52 1006.51 1006.47 1006.39 1006.29 1006.19 1006.09 1006.02 1005.99 1005.99 1006.03 1006.09 1006.17 1006.24 1006.31 1006.35 1006.39 1006.41 1006.43 1006.46 1006.51 1006.58 1006.66 1006.77 1006.89 1007.02 1007.15 1007.30 1007.46 1007.64 1007.83 1008.05 1008.30 1008.56 1008.84 1009.13
1006.17 1006.27 1006.35 1006.39 1006.39 1006.35 1006.29 1006.21 1006.13 1006.07 1006.04 1006.04 1006.08 1006.14 1006.21 1006.29 1006.36 1006.43 1006.48 1006.54 1006.60 1006.68 1006.77 1006.88 1007.02 1007.16 1007.31 1007.47 1007.62 1007.77 1007.91 1008.06 1008.22 1008.39 1008.57 1008.78 1009.00 1009.23
1005.79 1005.94 1006.07 1006.16 1006.22 1006.23 1006.21 1006.18 1006.13 1006.10 1006.09 1006.11 1006.15 1006.22 1006.30 1006.38 1006.47 1006.55 1006.63 1006.71 1006.80 1006.92 1007.05 1007.20 1007.38 1007.56 1007.74 1007.92 1008.08 1008.23 1008.37 1008.50 1008.62 1008.75 1008.89 1009.04 1009.20 1009.37
1005.33 1005.53 1005.71 1005.86 1005.97 1006.03 1006.07 1006.09 1006.09 1006.11 1006.14 1006.19 1006.26 1006.35 1006.44 1006.53 1006.63 1006.72 1006.82 1006.92 1007.04 1007.17 1007.33 1007.52 1007.72 1007.93 1008.14 1008.33 1008.51 1008.66 1008.79 1008.91 1009.01 1009.11 1009.21 1009.31 1009.43 1009.54
1004.84 1005.08 1005.29 1005.48 1005.63 1005.75 1005.83 1005.91 1005.97 1006.04 1006.12 1006.22 1006.34 1006.46 1006.58 1006.70 1006.81 1006.92 1007.03 1007.15 1007.28 1007.44 1007.61 1007.81 1008.03 1008.26 1008.48 1008.68 1008.87 1009.02 1009.15 1009.26 1009.34 1009.42 1009.49 1009.57 1009.65 1009.72
1004.35 1004.60 1004.83 1005.03 1005.21 1005.35 1005.48 1005.59 1005.71 1005.84 1005.99 1006.14 1006.31 1006.49 1006.66 1006.82 1006.96 1007.10 1007.24 1007.38 1007.53 1007.69 1007.88 1008.09 1008.31 1008.55 1008.77 1008.98 1009.16 1009.31 1009.43 1009.53 1009.61 1009.67 1009.73 1009.78 1009.83 1009.87
1003.88 1004.11 1004.32 1004.51 1004.68 1004.83 1004.96 1005.11 1005.27 1005.45 1005.66 1005.88 1006.12 1006.36 1006.59 1006.81 1007.02 1007.21 1007.39 1007.56 1007.74 1007.93 1008.13 1008.35 1008.58 1008.81 1009.03 1009.23 1009.40 1009.54 1009.65 1009.74 1009.80 1009.85 1009.89 1009.93 1009.95 1009.97
1003.42 1003.61 1003.77 1003.91 1004.04 1004.16 1004.29 1004.44 1004.63 1004.85 1005.11 1005.40 1005.71 1006.03 1006.35 1006.65 1006.93 1007.19 1007.44 1007.67 1007.90 1008.13 1008.36 1008.60 1008.84 1009.07 1009.27 1009.46 1009.61 1009.74 1009.83 1009.89 1009.93 1009.96 1009.98 1010.00 1010.00 1010.00
1002.95 1003.06 1003.15 1003.22 1003.29 1003.36 1003.46 1003.60 1003.79 1004.05 1004.35 1004.71 1005.10 1005.50 1005.91 1006.31 1006.68 1007.04 1007.37 1007.68 1007.98 1008.27 1008.55 1008.82 1009.08 1009.31 1009.52 1009.69 1009.82 1009.91 1009.97 1010.01 1010.02 1010.02 1010.01 1010.00 1009.98 1009.95
1002.40 1002.44 1002.44 1002.43 1002.42 1002.43 1002.49 1002.61 1002.81 1003.08 1003.43 1003.84 1004.30 1004.79 1005.29 1005.79 1006.27 1006.73 1007.17 1007.58 1007.96 1008.33 1008.68 1009.00 1009.29 1009.54 1009.75 1009.91 1010.02 1010.08 1010.11 1010.10 1010.07 1010.03 1009.98 1009.94 1009.89 1009.83
1001.74 1001.69 1001.61 1001.52 1001.44 1001.40 1001.42 1001.53 1001.72 1002.01 1002.39 1002.86 1003.38 1003.95 1004.54 1005.13 1005.71 1006.28 1006.82 1007.33 1007.82 1008.27 1008.70 1009.08 1009.42 1009.71 1009.93 1010.09 1010.19 1010.23 1010.22 1010.17 1010.09 1010.01 1009.92 1009.83 1009.74 1009.66
1000.90 1000.78 1000.63 1000.48 1000.35 1000.28 1000.28 1000.38 1000.59 1000.90 1001.32 1001.83 1002.40 1003.03 1003.69 1004.37 1005.04 1005.69 1006.33 1006.94 1007.53 1008.07 1008.58 1009.04 1009.44 1009.77 1010.03 1010.20 1010.30 1010.32 1010.29 1010.20 1010.09 1009.95 1009.82 1009.69 1009.57 1009.45
Thickness
5753 5751 5749 5748 5747 5745 5742 5738 5729 5721 5721 5725 5727 5730 5729 5727 5724 5722 5721 5719 5718 5717 5716 5715 5714 5713 5712 5711 5711 5710 5709 5708 5708 5707 5707 5707 5708 5708
5748 5746 5744 5743 5742 5740 5738 5735 5731 5724 5718 5721 5722 5724 5724 5722 5719 5716 5715 5714 5713 5712 5711 5710 5709 5708 5707 5706 5706 5705 5705 5704 5703 5703 5703 5703 5703 5703
5743 5741 5739 5738 5736 5734 5733 5730 5727 5723 5716 5715 5717 5718 5717 5715 5714 5712 5710 5709 5708 5707 5706 5705 5704 5703 5702 5701 5700 5700 5699 5699 5698 5698 5698 5698 5698 5699
5737 5735 5733 5732 5730 5728 5726 5724 5721 5719 5714 5709 5709 5709 5709 5709 5707 5705 5705 5704 5703 5702 5700 5699 5698 5697 5696 5695 5695 5694 5693 5693 5692 5692 5693 5693 5694 5694
5731 5729 5728 5726 5724 5722 5720 5718 5715 5714 5710 5706 5702 5702 5702 5701 5699 5698 5699 5697 5697 5696 5695 5694 5692 5692 5691 5690 5689 5689 5688 5687 5687 5687 5687 5687 5688 5688
5727 5725 5723 5721 5719 5717 5715 5711 5709 5706 5703 5699 5696 5694 5694 5693 5691 5689 5688 5689 5690 5691 5689 5688 5687 5686 5685 5684 5684 5683 5683 5682 5682 5682 5682 5682 5682 5682
5721 5719 5718 5717 5715 5713 5710 5706 5703 5699 5696 5692 5689 5686 5685 5683 5682 5682 5680 5681 5682 5683 5682 5681 5680 5679 5679 5678 5678 5678 5677 5677 5677 5676 5676 5675 5675 5675
5714 5713 5712 5710 5709 5707 5705 5702 5699 5694 5689 5685 5682 5679 5678 5677 5677 5676 5673 5671 5670 5675 5673 5673 5673 5672 5673 5673 5674 5673 5673 5672 5671 5670 5670 5669 5669 5669
5709 5706 5705 5704 5701 5699 5697 5696 5693 5691 5688 5683 5678 5676 5674 5674 5672 5669 5667 5665 5664 5667 5665 5664 5666 5665 5668 5668 5668 5668 5667 5666 5665 5664 5664 5663 5663 5663
5703 5700 5697 5696 5694 5691 5689 5686 5684 5683 5681 5679 5676 5674 5673 5671 5668 5665 5662 5660 5659 5660 5659 5655 5657 5658 5662 5662 5662 5661 5661 5660 5659 5658 5657 5657 5657 5656
5696 5694 5692 5690 5688 5685 5681 5678 5676 5676 5676 5674 5672 5670 5668 5666 5663 5658 5654 5650 5648 5650 5651 5649 5650 5651 5652 5654 5655 5655 5654 5653 5652 5652 5651 5651 5650 5649
5688 5687 5685 5683 5681 5678 5674 5671 5668 5667 5667 5666 5664 5662 5660 5658 5656 5653 5649 5645 5642 5641 5645 5643 5642 5641 5641 5645 5647 5647 5646 5645 5645 5645 5645 5644 5643 5641
5680 5678 5677 5675 5673 5671 5668 5665 5663 5661 5659 5657 5655 5654 5653 5651 5650 5648 5645 5642 5638 5636 5639 5638 5635 5633 5632 5633 5636 5638 5638 5638 5638 5638 5638 5637 5636 5635
5673 5671 5669 5668 5666 5663 5661 5659 5658 5654 5651 5648 5646 5645 5644 5644 5643 5642 5641 5639 5637 5635 5634 5632 5629 5626 5624 5623 5624 5628 5630 5630 5631 5631 5631 5630 5629 5629
5667 5665 5663 5661 5658 5655 5654 5652 5650 5646 5643 5641 5639 5638 5638 5638 5637 5636 5635 5633 5631 5630 5629 5627 5624 5622 5620 5617 5618 5619 5620 5622 5623 5623 5623 5622 5622 5622
5659 5657 5655 5652 5650 5647 5645 5643 5641 5638 5636 5634 5633 5632 5631 5630 5629 5628 5626 5624 5621 5621 5622 5621 5619 5617 5614 5613 5613 5612 5613 5613 5615 5615 5615 5615 5616 5616
5650 5647 5644 5641 5638 5636 5635 5633 5632 5630 5628 5626 5625 5624 5623 5621 5620 5619 5618 5616 5612 5611 5611 5612 5612 5611 5610 5608 5606 5607 5607 5607 5608 5607 5607 5607 5609 5610
5641 5638 5634 5631 5629 5627 5625 5624 5623 5622 5620 5619 5617 5615 5614 5612 5610 5609 5608 5606 5603 5603 5602 5602 5602 5600 5599 5600 5601 5600 5600 5600 5601 5601 5601 5600 5601 5603
5632 5629 5626 5623 5621 5620 5618 5616 5615 5615 5613 5611 5609 5607 5605 5603 5601 5600 5598 5596 5595 5595 5594 5593 5592 5589 5587 5588 5592 5594 5593 5593 5594 5594 5594 5594 5594 5597
5624 5621 5618 5616 5614 5612 5611 5609 5608 5607 5605 5603 5601 5599 5596 5595 5593 5591 5590 5588 5588 5586 5586 5585 5583 5582 5581 5582 5583 5585 5587 5586 5586 5587 5587 5587 5588 5589
5616 5614 5611 5609 5606 5605 5603 5602 5600 5598 5596 5594 5592 5590 5588 5586 5584 5583 5581 5581 5579 5577 5576 5576 5578 5578 5576 5574 5573 5575 5578 5579 5580 5580 5579 5578 5578 5579
5609 5607 5604 5602 5600 5598 5596 5594 5591 5589 5587 5586 5583 5581 5579 5577 5575 5574 5573 5571 5570 5569 5568 5569 5569 5567 5566 5564 5564 5566 5568 5570 5572 5573 5573 5574 5572 5572
5602 5600 5597 5595 5593 5591 5588 5586 5583 5580 5578 5576 5575 5573 5571 5569 5568 5566 5565 5563 5561 5561 5560 5559 5558 5558 5557 5556 5556 5557 5558 5560 5561 5562 5564 5567 5569 5570